{"data":{"norad_id":53395,"epoch":"2026-09-19T15:28:05.586240Z","epoch_age_seconds":149199,"freshness":"FRESH","line1":"1 53395U 22097H   26262.64450910  .00000818  00000+0  38116-4 0  9991","line2":"2 53395  53.1608 322.8820 0001412  81.2840 278.8322 15.31702465227935","mean_motion":15.31702465,"eccentricity":0.0001412,"inclination_deg":53.1608,"raan_deg":322.882,"arg_perigee_deg":81.284,"mean_anomaly_deg":278.8322,"bstar":3.8116e-5,"rev_number":22793,"period_min":94.013036663749,"perigee_km":469.76558680459,"apogee_km":471.69970759296,"semimajor_km":6848.8696471988,"source":"CELESTRAK","updated_at":"2026-09-20T09:00:40.224168Z"}}